Date String (YYYY-MM-DD hh:mm:ss) UTC,Instrument flags,Ambient pressure (hPa),Sample flow (lpm),Bypass flow (lpm),Sample temperature (°C),Ambient temperature (°C),ASC tube jacket temperature (°C),LED temperature (°C),Box temperature (°C),Sample RH (%),Span deviation,Mass concentration (μg/m³),Mass concentration (μg/m³),Mass concentration (μg/m³)
DateTimeUTC,F1_M11,P_M11,Q1_M11,Q2_M11,T1_M11,T2_M11,T3_M11,T4_M11,T5_M11,U1_M11,ZSPAN_M11,X0_M11,X2_M11,X1_M11
2023-04-11 06:00:00,,0835.5,5.00,0.00,28.9,27.1,00.0,37.3,30.3,09.8,0000.0,0011.09,0003.50,0001.80
2023-04-11 06:01:00,,0835.5,5.01,0.00,28.9,27.1,00.0,37.3,30.3,09.8,0000.0,0010.60,0003.50,0001.80
2023-04-11 06:02:00,,0835.5,5.00,0.00,28.9,27.1,00.0,37.3,30.3,09.8,0000.0,0010.37,0003.49,0001.80
2023-04-11 06:03:00,,0835.5,5.01,0.00,28.9,27.0,00.0,37.3,30.3,09.7,0000.0,0010.34,0003.55,0001.80
2023-04-11 06:04:00,,0835.4,5.00,0.00,28.9,27.0,00.0,37.3,30.3,09.7,0000.0,0010.42,0003.60,0001.78
2023-04-11 06:05:00,,0835.4,5.00,0.00,28.9,27.0,00.0,37.3,30.3,09.7,0000.0,0010.26,0003.58,0001.77
2023-04-11 06:06:00,,0835.4,4.99,0.00,28.8,27.0,00.0,37.3,30.3,09.7,0000.0,0010.80,0003.59,0001.77
2023-04-11 06:07:00,,0835.4,5.00,0.00,28.8,27.0,00.0,37.3,30.3,09.8,0000.0,0011.28,0003.59,0001.76
2023-04-11 06:08:00,,0835.4,5.00,0.00,28.8,27.0,00.0,37.3,30.3,09.7,0000.0,0010.95,0003.55,0001.77
2023-04-11 06:09:00,,0835.3,5.00,0.00,28.8,27.0,00.0,37.3,30.3,09.7,0000.0,0011.84,0003.51,0001.76
2023-04-11 06:10:00,,0835.3,5.00,0.00,28.8,26.9,00.0,37.2,30.2,09.7,0000.0,0012.20,0003.51,0001.76
2023-04-11 06:11:00,,0835.4,5.00,0.00,28.8,26.9,00.0,37.2,30.2,09.6,0000.0,0012.25,0003.58,0001.77
2023-04-11 06:12:00,,0835.3,5.00,0.00,28.8,26.9,00.0,37.2,30.2,09.7,0000.0,0012.44,0003.61,0001.76
2023-04-11 06:13:00,,0835.3,5.00,0.00,28.8,26.9,00.0,37.2,30.2,09.7,0000.0,0012.28,0003.63,0001.75
2023-04-11 06:14:00,,0835.3,5.00,0.00,28.8,26.9,00.0,37.2,30.2,09.7,0000.0,0012.27,0003.60,0001.75
2023-04-11 06:15:00,,0835.3,4.99,0.00,28.7,26.9,00.0,37.2,30.2,09.6,0000.0,0013.18,0003.61,0001.77
2023-04-11 06:16:00,,0835.3,4.99,0.00,28.7,26.9,00.0,37.2,30.2,09.6,0000.0,0013.42,0003.62,0001.76
2023-04-11 06:17:00,,0835.3,5.00,0.00,28.7,26.9,00.0,37.2,30.2,09.6,0000.0,0012.96,0003.58,0001.74
2023-04-11 06:18:00,,0835.3,5.00,0.00,28.7,26.9,00.0,37.2,30.2,09.6,0000.0,0012.17,0003.57,0001.74
2023-04-11 06:19:00,,0835.2,5.00,0.00,28.7,26.9,00.0,37.1,30.2,09.7,0000.0,0011.99,0003.57,0001.74
2023-04-11 06:20:00,,0835.2,5.00,0.00,28.7,26.8,00.0,37.1,30.2,09.7,0000.0,0011.36,0003.59,0001.74
2023-04-11 06:21:00,,0835.2,5.00,0.00,28.7,26.8,00.0,37.1,30.1,09.7,0000.0,0010.92,0003.54,0001.74
2023-04-11 06:22:00,,0835.2,5.00,0.00,28.7,26.8,00.0,37.1,30.1,09.7,0000.0,0010.35,0003.49,0001.75
2023-04-11 06:23:00,,0835.2,5.00,0.00,28.7,26.8,00.0,37.1,30.2,09.7,0000.0,0010.49,0003.49,0001.77
2023-04-11 06:24:00,,0835.2,5.00,0.00,28.6,26.8,00.0,37.1,30.1,09.7,0000.0,0010.77,0003.46,0001.78
2023-04-11 06:25:00,,0835.2,5.00,0.00,28.6,26.8,00.0,37.1,30.1,09.7,0000.0,0010.59,0003.46,0001.78
2023-04-11 06:26:00,,0835.3,5.00,0.00,28.6,26.8,00.0,37.1,30.1,09.8,0000.0,0009.98,0003.47,0001.78
2023-04-11 06:27:00,,0835.3,5.00,0.00,28.6,26.7,00.0,37.0,30.1,09.8,0000.0,0010.66,0003.52,0001.79
2023-04-11 06:28:00,,0835.3,5.00,0.00,28.6,26.7,00.0,37.0,30.1,09.7,0000.0,0010.33,0003.58,0001.82
2023-04-11 06:29:00,,0835.3,4.99,0.00,28.6,26.7,00.0,37.0,30.0,09.8,0000.0,0011.21,0003.59,0001.83
2023-04-11 06:30:00,,0835.3,5.01,0.00,28.6,26.7,00.0,37.0,30.0,09.8,0000.0,0011.65,0003.57,0001.82
2023-04-11 06:31:00,,0835.3,5.00,0.00,28.5,26.7,00.0,37.0,30.0,09.8,0000.0,0011.50,0003.56,0001.81
2023-04-11 06:32:00,,0835.3,5.00,0.00,28.5,26.7,00.0,37.0,30.0,09.8,0000.0,0012.41,0003.61,0001.82
2023-04-11 06:33:00,,0835.3,5.01,0.00,28.5,26.7,00.0,37.0,30.0,09.9,0000.0,0013.29,0003.65,0001.83
2023-04-11 06:34:00,,0835.3,5.00,0.00,28.5,26.7,00.0,37.0,30.0,09.9,0000.0,0013.86,0003.67,0001.84
2023-04-11 06:35:00,,0835.3,5.00,0.00,28.5,26.6,00.0,36.9,29.9,09.9,0000.0,0013.48,0003.67,0001.85
2023-04-11 06:36:00,,0835.3,5.01,0.00,28.5,26.6,00.0,36.9,29.9,09.9,0000.0,0013.44,0003.67,0001.83
2023-04-11 06:37:00,,0835.3,5.00,0.00,28.5,26.6,00.0,36.9,29.9,09.8,0000.0,0013.40,0003.66,0001.83
2023-04-11 06:38:00,,0835.3,5.00,0.00,28.5,26.6,00.0,36.9,29.9,09.8,0000.0,0012.68,0003.60,0001.82
2023-04-11 06:39:00,,0835.3,5.00,0.00,28.5,26.6,00.0,36.9,29.9,09.9,0000.0,0012.67,0003.51,0001.80
2023-04-11 06:40:00,,0835.3,5.00,0.00,28.4,26.5,00.0,36.9,29.9,09.9,0000.0,0011.68,0003.42,0001.78
2023-04-11 06:41:00,,0835.3,5.00,0.00,28.4,26.5,00.0,36.9,29.9,09.9,0000.0,0011.40,0003.42,0001.76
2023-04-11 06:42:00,,0835.2,5.00,0.00,28.4,26.5,00.0,36.9,29.9,09.9,0000.0,0011.26,0003.44,0001.76
2023-04-11 06:43:00,,0835.2,5.00,0.00,28.4,26.5,00.0,36.9,29.9,09.9,0000.0,0010.76,0003.46,0001.77
2023-04-11 06:44:00,,0835.2,5.00,0.00,28.4,26.5,00.0,36.8,29.9,09.9,0000.0,0009.79,0003.43,0001.76
2023-04-11 06:45:00,,0835.2,4.99,0.00,28.4,26.5,00.0,36.8,29.8,09.9,0000.0,0009.78,0003.41,0001.74
2023-04-11 06:46:00,,0835.2,5.01,0.00,28.4,26.5,00.0,36.8,29.8,09.8,0000.0,0009.30,0003.41,0001.71
2023-04-11 06:47:00,,0835.2,5.01,0.00,28.4,26.5,00.0,36.8,29.8,09.9,0000.0,0009.55,0003.42,0001.71
2023-04-11 06:48:00,,0835.2,5.01,0.00,28.3,26.5,00.0,36.8,29.8,10.0,0000.0,0009.99,0003.44,0001.71
2023-04-11 06:49:00,,0835.1,5.00,0.00,28.3,26.5,00.0,36.8,29.8,09.9,0000.0,0010.29,0003.53,0001.72
2023-04-11 06:50:00,,0835.2,5.00,0.00,28.3,26.5,00.0,36.8,29.8,09.9,0000.0,0010.11,0003.61,0001.73
2023-04-11 06:51:00,,0835.2,5.00,0.00,28.3,26.4,00.0,36.8,29.8,09.8,0000.0,0010.75,0003.65,0001.75
2023-04-11 06:52:00,,0835.2,5.00,0.00,28.3,26.4,00.0,36.8,29.8,09.8,0000.0,0011.08,0003.68,0001.78
2023-04-11 06:53:00,,0835.2,5.00,0.00,28.3,26.4,00.0,36.7,29.8,09.8,0000.0,0011.33,0003.67,0001.77
2023-04-11 06:54:00,,0835.2,5.00,0.00,28.3,26.4,00.0,36.7,29.8,09.8,0000.0,0011.92,0003.63,0001.78
2023-04-11 06:55:00,,0835.1,4.99,0.00,28.3,26.4,00.0,36.7,29.8,09.7,0000.0,0012.33,0003.62,0001.77
2023-04-11 06:56:00,,0835.1,5.01,0.00,28.2,26.4,00.0,36.7,29.7,09.7,0000.0,0011.61,0003.59,0001.77
2023-04-11 06:57:00,,0835.1,5.00,0.00,28.2,26.4,00.0,36.7,29.7,09.7,0000.0,0011.99,0003.59,0001.79
2023-04-11 06:58:00,,0835.1,4.99,0.00,28.2,26.3,00.0,36.7,29.7,09.7,0000.0,0012.10,0003.57,0001.79
2023-04-11 06:59:00,,0835.2,5.00,0.00,28.2,26.3,00.0,36.7,29.7,09.7,0000.0,0011.87,0003.55,0001.80
